Tracking 35334 objects as of 13-Sep-2026
HD Live streaming from Space Station
objects crossing your sky now

HG-03

Track HG-03 now!


NORAD ID: 61503
Int'l Code: 2024-181A
Launch date: October 10, 2024
Source: People's Republic of China (PRC)
Launch site: Xichang Space Center, China (XSC)
Your satellite tracking list
Your tracking list is empty




NASA's NSSDC Master Catalog

Two Line Element Set (TLE):
1 61503U 24181A   26256.29951291 -.00000253  00000-0  00000+0 0  9990
2 61503   0.0694 352.4148 0000909  88.6072 301.9676  1.00271237  7701
Source of the keplerian elements: AFSPC